DW8219 Weather Reports


time (UTC)temp
C
wind
direction
speed
KPH
gust
KPH
rain 1hr
cm
rain 24hr
cm
rain mn
cm
humidity
%
barometer
mb
20260505183403 28 216 14.5 41.8 0.00 0.00 0.00 35 1006.8
20260505182904 28 179 24.1 41.8 0.00 0.00 0.00 33 1006.9
20260505182405 28 211 17.7 32.2 0.00 0.00 0.00 36 1006.9
20260505181905 28 183 17.7 33.8 0.00 0.00 0.00 33 1007.0
20260505181405 28 202 22.5 40.2 0.00 0.00 0.00 34 1007.0
20260505180905 28 215 24.1 40.2 0.00 0.00 0.00 33 1007.1
20260505180404 28 198 19.3 41.8 0.00 0.00 0.00 33 1007.0
20260505175904 28 195 20.9 37.0 0.00 0.00 0.00 35 1007.0
20260505175406 27 190 11.3 25.7 0.00 0.00 0.00 38 1007.0
20260505174904 27 193 14.5 35.4 0.00 0.00 0.00 40 1007.1
20260505174404 27 210 20.9 37.0 0.00 0.00 0.00 38 1007.2
20260505173905 27 172 20.9 33.8 0.00 0.00 0.00 36 1007.3
20260505173406 27 211 11.3 33.8 0.00 0.00 0.00 39 1007.3
20260505172904 27 182 11.3 20.9 0.00 0.00 0.00 41 1007.5
20260505172404 27 210 16.1 25.7 0.00 0.00 0.00 41 1007.5
20260505171904 26 156 14.5 27.4 0.00 0.00 0.00 42 1007.4
20260505170905 26 166 14.5 25.7 0.00 0.00 0.00 42 1007.6
20260505170405 27 193 14.5 29.0 0.00 0.00 0.00 40 1007.7
20260505165904 26 202 8.0 19.3 0.00 0.00 0.00 42 1007.7
20260505164905 26 208 12.9 25.7 0.00 0.00 0.00 43 1007.9
20260505164404 26 167 8.0 19.3 0.00 0.00 0.00 41 1007.8
20260505163906 26 192 11.3 22.5 0.00 0.00 0.00 41 1007.9
20260505163405 27 207 9.7 22.5 0.00 0.00 0.00 40 1008.0
20260505162904 26 242 4.8 24.1 0.00 0.00 0.00 41 1008.1
20260505162404 26 210 8.0 20.9 0.00 0.00 0.00 41 1008.2
20260505161405 25 209 9.7 20.9 0.00 0.00 0.00 43 1008.4
20260505160905 25 173 8.0 24.1 0.00 0.00 0.00 44 1008.4
20260505160404 25 222 9.7 25.7 0.00 0.00 0.00 44 1008.4
20260505151905 23 177 6.4 22.5 0.00 0.00 0.00 45 1009.0
20260505151405 23 213 9.7 16.1 0.00 0.00 0.00 50 1009.0
20260505150405 23 174 3.2 14.5 0.00 0.00 0.00 47 1008.9
20260505140404 21 231 9.7 19.3 0.00 0.00 0.00 52 1009.5
20260505124905 18 225 6.4 16.1 0.00 0.00 0.00 60 1008.9
20260505124404 18 229 3.2 16.1 0.00 0.00 0.00 62 1009.0
20260505123905 18 216 6.4 16.1 0.00 0.00 0.00 63 1009.0
20260505123404 17 218 4.8 9.7 0.00 0.00 0.00 64 1009.1
20260505122405 17 215 3.2 8.0 0.00 0.00 0.00 67 1009.1
20260505121405 16 202 0.0 3.2 0.00 0.00 0.00 69 1009.3
20260505120904 16 204 0.0 3.2 0.00 0.00 0.00 71 1009.2
20260505120404 15 191 0.0 0.0 0.00 0.00 0.00 72 1009.2
20260505115905 15 192 0.0 3.2 0.00 0.00 0.00 74 1009.2
20260505115404 15 179 1.6 4.8 0.00 0.00 0.00 73 1009.2
20260505113904 15 181 8.0 16.1 0.00 0.00 0.00 73 1008.7
20260505113406 15 113 1.6 4.8 0.00 0.00 0.00 72 1009.3
20260505112905 15 159 1.6 8.0 0.00 0.00 0.00 72 1009.2
20260505112406 15 180 1.6 3.2 0.00 0.00 0.00 72 1009.2
20260505111905 15 208 0.0 1.6 0.00 0.00 0.00 71 1009.1
20260505111404 15 208 0.0 9.7 0.00 0.00 0.00 71 1009.2
20260505110404 15 189 4.8 8.0 0.00 0.00 0.00 70 1009.4
20260505101905 13 173 1.6 4.8 0.00 0.00 0.00 74 1009.1
20260505101405 13 190 1.6 4.8 0.00 0.00 0.00 74 1008.9
20260505100904 13 194 3.2 9.7 0.00 0.00 0.00 74 1008.9
20260505100405 13 178 3.2 8.0 0.00 0.00 0.00 74 1008.9
20260505095905 13 194 1.6 4.8 0.00 0.00 0.00 74 1008.7
20260505095404 13 194 0.0 1.6 0.00 0.00 0.00 73 1008.6
20260505094905 13 211 0.0 0.0 0.00 0.00 0.00 74 1008.5
20260505094405 13 205 0.0 3.2 0.00 0.00 0.00 73 1008.3
20260505093404 13 183 4.8 9.7 0.00 0.00 0.00 73 1008.3
20260505092904 13 190 3.2 8.0 0.00 0.00 0.00 72 1008.3
20260505091404 13 185 3.2 11.3 0.00 0.00 0.00 72 1008.3
20260505090905 13 196 4.8 16.1 0.00 0.00 0.00 72 1008.3
20260505090405 13 184 3.2 11.3 0.00 0.00 0.00 72 1008.3
20260505085904 13 195 3.2 12.9 0.00 0.00 0.00 72 1008.3
20260505085405 13 180 1.6 9.7 0.00 0.00 0.00 72 1008.3
20260505084905 13 197 3.2 11.3 0.00 0.00 0.00 71 1008.3
20260505083905 13 182 0.0 3.2 0.00 0.00 0.00 71 1008.3
20260505083404 13 184 1.6 4.8 0.00 0.00 0.00 71 1008.4
20260505082904 13 182 0.0 4.8 0.00 0.00 0.00 70 1008.4
20260505082405 13 200 0.0 4.8 0.00 0.00 0.00 70 1008.3
20260505081904 13 183 0.0 4.8 0.00 0.00 0.00 70 1008.3
20260505081404 13 182 0.0 3.2 0.00 0.00 0.00 70 1008.3
20260505080904 13 182 0.0 1.6 0.00 0.00 0.00 70 1008.3
20260505080404 13 180 0.0 3.2 0.00 0.00 0.00 69 1008.3
20260505075905 13 184 1.6 3.2 0.00 0.00 0.00 69 1008.3
20260505075404 13 208 0.0 8.0 0.00 0.00 0.00 69 1008.4
20260505074904 13 188 4.8 9.7 0.00 0.00 0.00 68 1008.3
20260505074404 13 163 3.2 9.7 0.00 0.00 0.00 68 1008.2
20260505073904 13 181 3.2 9.7 0.00 0.00 0.00 68 1008.3
20260505073404 13 187 1.6 9.7 0.00 0.00 0.00 68 1008.3
20260505072404 13 189 1.6 4.8 0.00 0.00 0.00 67 1008.2
20260505070404 14 185 4.8 9.7 0.00 0.00 0.00 67 1008.3
20260505065904 14 232 1.6 9.7 0.00 0.00 0.00 67 1008.2
20260505064905 14 186 4.8 9.7 0.00 0.00 0.00 66 1008.2
20260505064404 14 205 6.4 11.3 0.00 0.00 0.00 66 1008.2
20260505063905 14 202 3.2 9.7 0.00 0.00 0.00 65 1008.2
20260505063405 14 218 0.0 4.8 0.00 0.00 0.00 65 1008.2
20260505061404 14 204 1.6 11.3 0.00 0.00 0.00 66 1008.4
20260505060905 14 208 1.6 8.0 0.00 0.00 0.00 66 1008.5
20260505060406 14 190 1.6 9.7 0.00 0.00 0.00 66 1008.5
20260505055904 14 193 0.0 3.2 0.00 0.00 0.00 67 1008.5
20260505055404 14 187 0.0 3.2 0.00 0.00 0.00 66 1008.4
20260505054904 14 192 1.6 4.8 0.00 0.00 0.00 66 1008.5
20260505054406 14 184 0.0 1.6 0.00 0.00 0.00 65 1008.5
20260505053905 14 177 0.0 4.8 0.00 0.00 0.00 65 1008.5
20260505053405 15 180 1.6 4.8 0.00 0.00 0.00 64 1008.5
20260505052905 15 167 3.2 9.7 0.00 0.00 0.00 63 1008.6
20260505052404 15 178 1.6 11.3 0.00 0.00 0.00 63 1008.6
20260505051905 15 186 4.8 12.9 0.00 0.00 0.00 62 1008.6
20260505051405 15 188 3.2 14.5 0.00 0.00 0.00 62 1008.6
20260505050904 15 179 4.8 16.1 0.00 0.00 0.00 62 1008.7
20260505050405 15 181 4.8 12.9 0.00 0.00 0.00 61 1008.7
20260505041404 16 179 3.2 16.1 0.00 0.00 0.00 58 1008.8
20260505040905 16 177 4.8 16.1 0.00 0.00 0.00 57 1008.8
20260505035905 16 165 8.0 16.1 0.00 0.00 0.00 57 1008.8
20260505035404 16 174 8.0 14.5 0.00 0.00 0.00 56 1008.9
20260505034905 16 187 8.0 19.3 0.00 0.00 0.00 56 1008.9
20260505033906 16 164 6.4 19.3 0.00 0.00 0.00 55 1008.9
20260505033406 16 168 9.7 20.9 0.00 0.00 0.00 54 1008.9
20260505032904 16 184 4.8 19.3 0.00 0.00 0.00 54 1009.0
20260505032405 16 180 8.0 19.3 0.00 0.00 0.00 54 1009.0
20260505031905 16 182 3.2 11.3 0.00 0.00 0.00 55 1009.0
20260505030906 16 166 0.0 9.7 0.00 0.00 0.00 54 1009.0
20260505030406 16 197 3.2 12.9 0.00 0.00 0.00 54 1009.0
20260505025906 16 180 3.2 12.9 0.00 0.00 0.00 53 1009.0
20260505025405 16 182 3.2 19.3 0.00 0.00 0.00 53 1009.1
20260505024904 16 181 3.2 12.9 0.00 0.00 0.00 53 1009.1
20260505023905 16 180 1.6 16.1 0.00 0.00 0.00 52 1009.1
20260505023403 17 178 4.8 12.9 0.00 0.00 0.00 52 1009.1
20260505022904 17 173 8.0 14.5 0.00 0.00 0.00 51 1009.1
20260505021904 17 171 4.8 19.3 0.00 0.00 0.00 51 1009.2
20260505015905 17 192 8.0 19.3 0.00 0.00 0.00 51 1009.1
20260505015405 17 176 4.8 19.3 0.00 0.00 0.00 50 1009.1
20260505014904 17 178 8.0 19.3 0.00 0.00 0.00 51 1009.1
20260505014404 17 170 9.7 19.3 0.00 0.00 0.00 51 1009.0
20260505013904 17 167 9.7 19.3 0.00 0.00 0.00 50 1009.0
20260505013404 17 189 6.4 14.5 0.00 0.00 0.00 50 1009.0
20260505012904 17 167 6.4 20.9 0.00 0.00 0.00 49 1008.9
20260505011904 18 159 4.8 12.9 0.00 0.00 0.00 46 1008.8
20260505011404 18 143 3.2 8.0 0.00 0.00 0.00 40 1008.6
20260505010905 19 181 1.6 12.9 0.00 0.00 0.00 38 1008.5
20260505010405 19 202 3.2 16.1 0.00 0.00 0.00 38 1008.5
20260505005904 19 227 4.8 14.5 0.00 0.00 0.00 37 1008.2
20260505005404 19 191 4.8 19.3 0.00 0.00 0.00 38 1008.2
20260505004904 19 208 4.8 11.3 0.00 0.00 0.00 37 1008.2
20260505003905 19 203 4.8 20.9 0.00 0.00 0.00 37 1008.2
20260505003405 19 203 9.7 20.9 0.00 0.00 0.00 37 1008.0
20260505002905 19 213 8.0 20.9 0.00 0.00 0.00 36 1008.0
20260505001904 19 206 11.3 20.9 0.00 0.00 0.00 37 1007.7
20260505001404 20 213 8.0 16.1 0.00 0.00 0.00 36 1007.7
20260505000904 20 207 11.3 19.3 0.00 0.00 0.00 36 1007.6
20260505000405 20 198 11.3 19.3 0.00 0.00 0.00 36 1007.5
20260504235404 20 218 8.0 14.5 0.00 0.00 0.00 36 1007.4
20260504234905 20 211 8.0 20.9 0.00 0.00 0.00 35 1007.3
20260504233404 20 236 4.8 16.1 0.00 0.00 0.00 36 1007.2
20260504232904 20 223 8.0 20.9 0.00 0.00 0.00 35 1007.0
20260504232404 20 224 8.0 25.7 0.00 0.00 0.00 35 1007.0
20260504231904 20 233 9.7 20.9 0.00 0.00 0.00 35 1006.9
20260504231405 20 216 12.9 27.4 0.00 0.00 0.00 35 1006.9
20260504230905 21 222 12.9 22.5 0.00 0.00 0.00 35 1006.8
20260504230404 21 211 14.5 24.1 0.00 0.00 0.00 34 1006.8
20260504225905 21 231 9.7 20.9 0.00 0.00 0.00 34 1006.8
20260504225404 21 212 14.5 22.5 0.00 0.00 0.00 34 1006.8
20260504224904 21 228 11.3 22.5 0.00 0.00 0.00 34 1006.8
20260504224404 21 223 11.3 24.1 0.00 0.00 0.00 35 1007.0
20260504223904 21 206 8.0 22.5 0.00 0.00 0.00 34 1006.9
20260504223405 21 210 11.3 22.5 0.00 0.00 0.00 34 1006.8
20260504222905 21 202 11.3 19.3 0.00 0.00 0.00 34 1006.9
20260504221905 21 192 9.7 25.7 0.00 0.00 0.00 33 1006.9
20260504221405 21 218 14.5 22.5 0.00 0.00 0.00 33 1006.9
20260504220905 22 214 12.9 20.9 0.00 0.00 0.00 33 1007.1
20260504220404 21 229 8.0 19.3 0.00 0.00 0.00 34 1007.2
20260504215905 21 216 14.5 33.8 0.00 0.00 0.00 32 1007.3
20260504215404 22 217 12.9 33.8 0.00 0.00 0.00 32 1007.3
20260504214405 22 184 11.3 22.5 0.00 0.00 0.00 32 1007.3
20260504213905 22 210 16.1 25.7 0.00 0.00 0.00 33 1007.4
20260504212404 22 250 16.1 35.4 0.00 0.00 0.00 32 1007.3
20260504211905 22 252 8.0 24.1 0.00 0.00 0.00 33 1007.4
20260504211404 22 213 4.8 22.5 0.00 0.00 0.00 33 1007.4
20260504210904 22 219 11.3 27.4 0.00 0.00 0.00 33 1007.4
20260504210405 22 241 9.7 25.7 0.00 0.00 0.00 33 1007.4
20260504205905 21 203 9.7 22.5 0.00 0.00 0.00 33 1007.4
20260504205405 22 257 17.7 27.4 0.00 0.00 0.00 32 1007.4
20260504204905 22 224 11.3 24.1 0.00 0.00 0.00 34 1007.3
20260504204406 22 244 11.3 25.7 0.00 0.00 0.00 32 1007.3
20260504203905 22 231 9.7 25.7 0.00 0.00 0.00 32 1007.3
20260504203404 22 229 14.5 24.1 0.00 0.00 0.00 33 1007.4
20260504202903 22 233 11.3 25.7 0.00 0.00 0.00 32 1007.3
20260504201904 22 175 3.2 16.1 0.00 0.00 0.00 30 1007.5
20260504201404 22 202 8.0 32.2 0.00 0.00 0.00 32 1007.5
20260504200904 22 199 12.9 32.2 0.00 0.00 0.00 35 1007.6
20260504200403 22 222 16.1 29.0 0.00 0.00 0.00 32 1007.6
20260504195905 22 222 12.9 29.0 0.00 0.00 0.00 30 1007.6
20260504195404 22 242 3.2 19.3 0.00 0.00 0.00 33 1007.7
20260504194904 22 245 9.7 24.1 0.00 0.00 0.00 32 1007.8
20260504194404 22 251 16.1 29.0 0.00 0.00 0.00 32 1007.7
20260504193903 22 210 11.3 25.7 0.00 0.00 0.00 34 1007.7
20260504193403 22 242 14.5 29.0 0.00 0.00 0.00 33 1007.7
20260504192904 22 212 14.5 25.7 0.00 0.00 0.00 34 1007.8
20260504192403 22 230 9.7 29.0 0.00 0.00 0.00 34 1007.9
20260504190904 22 227 19.3 32.2 0.00 0.00 0.00 31 1008.2
20260504190405 22 230 16.1 35.4 0.00 0.00 0.00 33 1008.2
20260504185905 22 225 11.3 25.7 0.00 0.00 0.00 35 1008.2
20260504185404 22 210 12.9 27.4 0.00 0.00 0.00 34 1008.2
20260504184904 22 219 9.7 19.3 0.00 0.00 0.00 35 1008.3
20260504184404 22 235 17.7 32.2 0.00 0.00 0.00 34 1008.4